Flag for Saudi Arabia

Past Weather in Makkah, Saudi Arabia — Yesterday and Last 2 Weeks

Now
91 °F

Clear.


Feels Like: 99 °F
Forecast: 106 / 85 °F
Wind: 5 mph from North

Location: Jeddah King Abdul Aziz International Airport
Current Time: Sep 19, 2020 at 10:40:50 pm
Latest Report: Sep 19, 2020 at 10:00 pm
Visibility: 10 mi
Pressure29.65 "Hg
Humidity: 52%
Dew Point: 72 °F
Location of MakkahLocation

Past Weather in Makkah — Graph

°F

Makkah Temperature Yesterday

Maximum temperature yesterday: 106 °F (at 11:00 am)
Minimum temperature yesterday: 84 °F (at 6:00 am)
Average temperature yesterday: 94 °F

High & Low Weather Summary for the Past Weeks

 TemperatureHumidityPressure
High108 °F (Sep 13, 12:00 pm)89% (Sep 15, 5:00 am)29.77 "Hg (Sep 15, 5:00 am)
Low84 °F (Sep 7, 6:00 am)23% (Sep 18, 11:00 am)29.53 "Hg (Sep 6, 4:00 pm)
Average93 °F58%29.66 "Hg
* Reported Sep 4 9:00 pm — Sep 19 9:00 pm, Makkah. Weather by CustomWeather, © 2020

Note: Actual official high and low records may vary slightly from our data, if they occured in-between our weather recording intervals... More about our weather records

Makkah Weather History for the Previous 24 Hours

Scroll right to see more
 ConditionsComfort  
Time TempWeatherWind HumidityBarometerVisibility
9:00 pm
Sat, Sep 19
91 °FClear.5 mph56%29.65 "Hg10 mi
8:00 pm93 °FClear.No wind59%29.62 "Hg10 mi
7:00 pm95 °FPassing clouds.7 mph56%29.59 "HgN/A
6:00 pm99 °FPassing clouds.9 mph47%29.59 "Hg5 mi
5:00 pm99 °FPassing clouds.10 mph44%29.59 "Hg5 mi
4:00 pm99 °FPassing clouds.10 mph47%29.59 "Hg5 mi
3:00 pm99 °FPassing clouds.12 mph47%29.62 "Hg5 mi
2:00 pm97 °FSunny.14 mph60%29.65 "Hg10 mi
1:00 pm97 °FSunny.9 mph63%29.65 "Hg10 mi
12:00 pm97 °FSunny.12 mph63%29.68 "Hg10 mi
11:00 am102 °FSunny.No wind37%29.68 "Hg10 mi
10:00 am97 °FSunny.No wind47%29.71 "Hg10 mi
9:00 am93 °FSunny.6 mph59%29.71 "Hg10 mi
8:00 am91 °FSunny.No wind56%29.68 "Hg10 mi
7:00 am86 °FSunny.2 mph59%29.68 "Hg10 mi
6:00 am88 °FClear.2 mph55%29.68 "Hg10 mi
5:00 am88 °FClear.5 mph59%29.65 "Hg10 mi
4:00 am88 °FClear.5 mph62%29.65 "Hg10 mi
3:00 am90 °FClear.2 mph59%29.65 "Hg10 mi
2:00 am88 °FClear.5 mph70%29.68 "Hg10 mi
1:00 am90 °FPassing clouds.5 mph63%29.68 "HgN/A
12:00 am91 °FPassing clouds.No wind63%29.68 "HgN/A
11:00 pm
Fri, Sep 18
91 °FPassing clouds.No wind63%29.71 "HgN/A
10:00 pm93 °FPassing clouds.No wind59%29.71 "HgN/A
Weather by CustomWeather, © 2020

See weather overview